Regional Weather Roundup
Issued by NWS

Home | Current Version | Previous Version | Graphics & Text | Print | Product List | Glossary On
Versions: 1 2 3 4 5 6 7 8 9 10 11 12 13 14 15 16 17 18 19 20 21 22 23 24 25 26 27 28 29 30 31 32 33 34 35 36 37 38 39 40 41 42 43 44 45 46 47 48 49 50
862
ASUS43 KIND 031909
RWRIN

WEATHER ROUNDUP FOR INDIANA
NATIONAL WEATHER SERVICE INDIANAPOLIS IN
300 PM EDT TUE MAY 03 2016

NOTE: "FAIR" INDICATES FEW OR NO CLOUDS BELOW 12,000 FEET WITH NO
SIGNIFICANT WEATHER AND/OR OBSTRUCTIONS TO VISIBILITY.

* - STATION DOES NOT REPORT WEATHER SUCH AS PRECIPITATION OR FOG.

+ - STATION NOT QUALITY CONTROLLED BY THE NATIONAL WEATHER SERVICE.
    USE DATA WITH CAUTION...ESPECIALLY DEWPOINT AND RELATIVE
    HUMIDITY OBSERVATIONS.

INZ001>003-010>013-019-020-032000-
NORTHWEST INDIANA

CITY           SKY/WX    TMP DP  RH WIND       PRES   REMARKS
GARY /AIRPORT/ PTSUNNY   66  45  45 N5        29.88F
KNOX *+        MOSUNNY   63  23  22 N7        29.89F
LA PORTE +     SUNNY     65  35  32 N10       29.89F
MICHIGAN CITY+ SUNNY     64  37  36 NW7       29.89F
MONTICELLO +   PTSUNNY   62  35  35 NW7       29.90F
RENSSELAER +   MOSUNNY   64  34  32 NW6       29.90F
VALPARAISO     SUNNY     64  32  30 N8        29.89F

$$

LMZ046-743>745-032000-
SOUTHERN LAKE MICHIGAN

STATION/POSITION TIME  TEMP    WIND        PRES    WAVE
                       AIR SEA DIR/SP/G            HT
                 (UTC) (F)     (DEG/KT/KT) (MB)    (FT)
BURNS HARBOR     1800   61      CALM  /  2 1013.5F
MICHIGAN CITY    1800   53     220/  2/  2   N/A

$$

INZ004-005-014>016-021>024-032000-
NORTH CENTRAL INDIANA

CITY           SKY/WX    TMP DP  RH WIND       PRES   REMARKS
ELKHART        PTSUNNY   63  43  48 W10       29.88F
GOSHEN         CLOUDY    61  42  49 NW8       29.88F
LOGANSPORT +   PTSUNNY   59  43  55 N3        29.91F
PERU/GRISSOM   CLOUDY    59  45  58 VRB1      29.90F
ROCHESTER +    MOSUNNY   63  41  45 NW6       29.90F
SOUTH BEND     SUNNY     63  36  36 NW8       29.89F
WARSAW +       PTSUNNY   61  37  41 W3        29.89F

$$

INZ006>009-017-018-025>027-032000-
NORTHEAST INDIANA

CITY           SKY/WX    TMP DP  RH WIND       PRES   REMARKS
ANGOLA *+      PTSUNNY   61  37  41 SW5       29.86F
AUBURN +       PTSUNNY   61  37  41 SW5       29.89F
FORT WAYNE     PTSUNNY   58  41  53 NW6       29.90F
HUNTINGTON +   CLOUDY    59  44  58 CALM      29.90F

$$

INZ028-029-035-036-043>045-051>053-032000-
WEST CENTRAL INDIANA

CITY           SKY/WX    TMP DP  RH WIND       PRES   REMARKS
CRAWFORDSVL +  PTSUNNY   58  42  54 N7        29.92F
GREENCASTLE +  CLOUDY    59  45  58 N9        29.93F
LAFAYETTE      PTSUNNY   63  40  42 NW10G18   29.91F
TERRE HAUTE    PTSUNNY   62  40  44 NW8       29.93F

$$

INZ030>032-037>040-046>048-054>057-064-065-032000-
CENTRAL INDIANA

CITY           SKY/WX    TMP DP  RH WIND       PRES   REMARKS
ANDERSON       CLOUDY    55  46  71 NW5       29.92F
COLUMBUS       CLOUDY    54  54 100 NW8       29.93F
FISHERS *+     CLOUDY    55  48  76 N5        29.92F
FRANKFORT +      N/A     60  34  38 N5        29.93F
GREENWOOD *+   CLOUDY    52  48  87 N3        29.94F
INDIANAPOLIS   CLOUDY    56  48  74 NE7       29.92F
-EAGLE CREEK   CLOUDY    58  49  72 NW6       29.92F
KOKOMO *+      CLOUDY    59  46  63 N6        29.91F
MARION +       CLOUDY    56  46  69 CALM      29.92F
SHELBYVILLE    CLOUDY    57  48  72 NW6       29.92S
ZIONSVILLE +   CLOUDY    55  48  77 N6        29.93F

$$

INZ033-034-041-042-049-050-058-059-032000-
EAST CENTRAL INDIANA

CITY           SKY/WX    TMP DP  RH WIND       PRES   REMARKS
MUNCIE         CLOUDY    56  46  69 NW7       29.91F

$$

INZ060-061-067>069-081>083-085>088-032000-
SOUTHWEST INDIANA

CITY           SKY/WX    TMP DP  RH WIND       PRES   REMARKS
EVANSVILLE     CLOUDY    61  44  53 N12       29.97F
HUNTINGBURG *+ CLOUDY    57  46  67 NW13      29.96S
WASHINGTON +   CLOUDY    60  48  64 NW7       29.95S

$$

INZ062-063-066-070>080-084-089>092-032000-
SOUTH CENTRAL AND SOUTHEAST INDIANA

CITY           SKY/WX    TMP DP  RH WIND       PRES   REMARKS
BEDFORD +      CLOUDY    55  54  94 W5        29.93F
BLOOMINGTON    CLOUDY    58  47  66 VRB3      29.93F
MADISON *+     CLOUDY    54  50  87 NW6G16    29.93S
NORTH VERNON + CLOUDY   N/A N/A N/A CALM      29.93S HAZE
SEYMOUR +      CLOUDY    57  50  77 N10       29.93S

$$





USA.gov is the U.S. government's official web portal to all federal, state and local government web resources and services.